Regional Weather Roundup
Issued by NWS

Home | Current Version | Previous Version | Graphics & Text | Print | Product List | Glossary On
Versions: 1 2 3 4 5 6 7 8 9 10 11 12 13 14 15 16 17 18 19 20 21 22 23 24 25 26 27 28 29 30 31 32 33 34 35 36 37 38 39 40 41 42 43 44 45 46 47 48 49 50
000
ASUS45 KABQ 062301
RWRNM
WEATHER ROUNDUP FOR NEW MEXICO
NATIONAL WEATHER SERVICE ALBUQUERQUE NM
500 PM MDT WED MAY 06 2015

NOTE: "FAIR" MEANS FEW OR NO CLOUDS BELOW 12,000 FEET AGL WITH NO
       SIGNIFICANT WEATHER OR OBSTRUCTIONS TO VISION.

      THIS PRODUCT IS RELEASED AS TWO VERSIONS.  ONE VERSION NEAR
      THE TOP OF THE HOUR CONTAINING PRELIMINARY DATA FROM ALBUQUERQUE
      AND OTHER STATIONS.  A FINAL VERSION WITH ADDITIONAL DATA IS
      ISSUED ABOUT 10 MINUTES AFTER THE HOUR.

NMZ501-503-504-510>518-070000-
NORTHWEST PLATEAU/NORTHCENTRAL MOUNTAINS

CITY           SKY/WX    TMP DP  RH WIND       PRES   REMARKS
FARMINGTON     SUNNY     64  37  36 E6        29.82F
SANTA FE       CLOUDY    59  35  40 NW20G31   29.88R
TAOS           PTSUNNY   61  34  36 W14       29.90S

$$
NMZ402-403-502-505>509-070000-
WESTCENTRAL MOUNTAINS/SOUTHWEST MOUNTAINS

CITY           SKY/WX    TMP DP  RH WIND       PRES   REMARKS
GALLUP         PTSUNNY   64  29  26 SW23G39   29.88F
GRANTS         TSTM      52  40  63 W12       29.98R
SILVER CITY      N/A     73  23  15 W16       29.90F

$$
NMZ407-409-411-412-070000-
SOUTHERN DESERTS

CITY           SKY/WX    TMP DP  RH WIND       PRES   REMARKS
DEMING         SUNNY     80  14   8 W20G26    29.82F
HOLLOMAN AFB   MOSUNNY   82  23  11 SW13G28   29.79F
ALAMOGORDO     MOSUNNY   81  28  15 S14       29.82F
T OR C         MOSUNNY   77  19  11 S23G31    29.80F

$$
NMZ519>523-070000-
CENTRAL VALLEYS/CENTRAL HIGHLANDS

CITY           SKY/WX    TMP DP  RH WIND       PRES   REMARKS
ALBUQUERQUE    PTSUNNY   67  40  37 SE6       29.85F
DOUBLE EAGLE   PTSUNNY   68  37  32 S21       29.86F
MORIARTY ARPT  FAIR      64  32  29 SW9       29.90F
CLINES CORNERS PTSUNNY   64  32  30 W21G32    29.92S
BELEN          FAIR      71  33  24 SE13      29.84F
SOCORRO        NOT AVBL

$$
NMZ524>526-539-540-070000-
SOUTHCENTRAL MOUNTAINS

CITY           SKY/WX    TMP DP  RH WIND       PRES   REMARKS
RUIDOSO        NOT AVBL

$$
NMZ527>531-070000-
NORTHEAST HIGHLANDS/NORTHEAST PLAINS

CITY           SKY/WX    TMP DP  RH WIND       PRES   REMARKS
LAS VEGAS      PTSUNNY   65  34  31 W23G32    29.87S
RATON          PTSUNNY   65  33  30 SW17      29.78R
CLAYTON        MOSUNNY   76  37  24 SW22G38   29.70S

$$
NMZ532>537-070000-
EASTCENTRAL PLAINS

CITY           SKY/WX    TMP DP  RH WIND       PRES   REMARKS
TUCUMCARI      MOSUNNY   77  39  25 SW23G32   29.74S
CANNON AFB     MOSUNNY   73  44  34 SW13      29.82F
CLOVIS AIRPORT MOSUNNY   73  45  35 S13       29.83F

$$
NMZ028-029-538-070000-
SOUTHEAST PLAINS

CITY           SKY/WX    TMP DP  RH WIND       PRES   REMARKS
ROSWELL        SUNNY     82  36  19 S16G28    29.76F
ARTESIA        SUNNY     84  34  16 SW15G21   29.77F
CARLSBAD       SUNNY     86  30  13 SW18G28   29.75F
HOBBS          MOSUNNY   81  45  28 S12G22    29.82F


$$


USA.gov is the U.S. government's official web portal to all federal, state and local government web resources and services.